Location: Township of Marena
(38.1747°N, 99.6798°W)
Time: 05:32:02
(UTC+00:00)

Cosmos 1689 Rocket - Pass Details

Date: 26 October 2020
Orbit: 360 x 375 km, 97.5° (Epoch: 25 November)

Event Time Altitude Azimuth Distance (km) Brightness Sun altitude
Rises 11:42:57 0° 158° (SSE) 2,230 6.3 -15.5°
Reaches altitude 10° 11:44:55 10° 154° (SSE) 1,381 5.3 -15.2°
Maximum altitude 11:47:48 53° 76° (ENE) 468 2.8 -14.6°
Drops below altitude 10° 11:50:40 10° 358° (N) 1,383 4.8 -14.0°
Sets 11:52:38 0° 353° (N) 2,234 5.8 -13.6°
